Regional Weather Roundup
Issued by NWS

Home | Current Version | Previous Version | Text Only | Print | Product List | Glossary On
Versions: 1 2 3 4 5 6 7 8 9 10 11 12 13 14 15 16 17 18 19 20 21 22 23 24 25 26 27 28 29 30 31 32 33 34 35 36 37 38 39 40 41 42 43 44 45 46 47 48 49 50
000
ASUS43 KTOP 260308
RWRKS

WEATHER ROUNDUP FOR KANSAS
NATIONAL WEATHER SERVICE GOODLAND KS
1000 PM CDT SAT OCT 25 2014

NOTE:  "FAIR" INDICATES FEW OR NO CLOUDS BELOW 12,000 FEET WITH NO
SIGNIFICANT WEATHER AND/OR OBSTRUCTIONS TO VISIBILITY.

KSZ001>006-013>018-027>032-041>047-260400-
NORTHWEST KANSAS

CITY           SKY/WX    TMP DP  RH WIND       PRES   REMARKS
GOODLAND       CLEAR     54  40  59 S6        29.96F
HAYS           CLEAR     61  48  63 SE3       29.93S
HILL CITY      CLEAR     69  48  47 SE6       29.93S
RUSSELL        CLEAR     66  55  67 S10       29.92S
$$

KSZ061>065-074>080-084>089-260400-
SOUTHWEST KANSAS

CITY           SKY/WX    TMP DP  RH WIND       PRES   REMARKS
DODGE CITY     CLEAR     69  47  45 S12       29.96S
ELKHART          N/A     62  41  46 S6          N/A
GARDEN CITY    CLEAR     68  47  46 S10       29.95S
GREAT BEND     CLEAR     68  55  64 S10       29.93F
LIBERAL        CLEAR     68  45  42 S10       29.99S
PRATT          CLEAR     72  54  53 S14       29.95F
$$

KSZ066>073-081>083-090>101-260400-
SOUTHEAST KANSAS

CITY           SKY/WX    TMP DP  RH WIND       PRES   REMARKS
CHANUTE        CLEAR     66  63  90 SE7       29.99F
COFFEYVILLE    CLEAR     68  63  84 SE7       29.99S
HUTCHINSON     CLEAR     68  58  70 SE7       29.95S
MEDICINE LODGE   N/A     69  57  65 S9        29.95S
NEWTON         CLEAR     72  55  56 S13       29.98F
PARSONS        CLEAR     69  64  84 SE3       30.00F
WICHITA INTL   CLEAR     71  60  68 S10       29.95F
WICHITA JABRA  CLEAR     69  60  73 S8        29.96F
WICHITA MCCONL CLEAR     70  62  74 SE8       29.97S
WINFIELD       CLEAR     71  61  70 S9        29.98F
$$

KSZ007>012-019>026-033>040-048>060-102>105-260400-
NORTHEAST KANSAS

CITY           SKY/WX    TMP DP  RH WIND       PRES   REMARKS
CONCORDIA      CLEAR     62  57  83 E6        29.96S
EMPORIA        CLEAR     65  61  87 SE8       29.97S
LAWRENCE       CLEAR     63  56  78 SE7       29.99S
MANHATTAN      CLEAR     68  59  73 E6        29.95S
MARYSVILLE     CLEAR     63  50  63 E5        29.98S
OLATHE IND     CLEAR     67  58  72 E7        30.00F
OLATHE EXE     CLEAR     68  59  73 E7        30.00S
SALINA         CLEAR     65  57  75 S7        29.93F
TOPEKA BILLARD CLEAR     65  59  81 E3        29.98S
TOPEKA FORBES  CLEAR     66  58  75 E7        29.98S
$$



USA.gov is the U.S. government's official web portal to all federal, state and local government web resources and services.